TimeHST,TemperatureF,Dew PointF,Humidity,Sea Level PressureIn,VisibilityMPH,Wind Direction,Wind SpeedMPH,Gust SpeedMPH,PrecipitationIn,Events,Conditions,WindDirDegrees,DateUTC
12:56 AM,64.9,57.9,78,29.94,10.0,East,9.2,-,N/A,,Clear,80,2013-11-12 10:56:00
1:56 AM,63.9,56.8,78,29.94,10.0,East,5.8,-,N/A,,Clear,80,2013-11-12 11:56:00
2:56 AM,63.9,57.9,81,29.92,10.0,ENE,8.1,-,N/A,,Clear,70,2013-11-12 12:56:00
3:56 AM,63.0,57.9,84,29.93,10.0,NE,9.2,-,N/A,,Clear,40,2013-11-12 13:56:00
4:56 AM,63.9,57.9,81,29.94,10.0,NE,10.4,-,N/A,,Clear,50,2013-11-12 14:56:00
5:56 AM,63.9,59.0,84,29.96,10.0,NE,6.9,-,N/A,,Clear,40,2013-11-12 15:56:00
6:56 AM,63.0,57.9,84,29.99,10.0,NE,9.2,-,N/A,,Clear,40,2013-11-12 16:56:00
7:56 AM,70.0,59.9,70,30.00,10.0,ENE,6.9,-,N/A,,Clear,60,2013-11-12 17:56:00
8:56 AM,73.9,59.0,59,30.00,8.0,ENE,9.2,-,N/A,,Clear,60,2013-11-12 18:56:00
9:56 AM,74.8,57.9,55,30.00,10.0,NE,12.7,-,N/A,,Partly Cloudy,40,2013-11-12 19:56:00
10:56 AM,75.9,57.9,54,29.99,10.0,North,6.9,-,N/A,,Mostly Cloudy,350,2013-11-12 20:56:00
11:56 AM,75.9,56.8,51,29.97,10.0,NNE,10.4,-,N/A,,Mostly Cloudy,30,2013-11-12 21:56:00
12:56 PM,77.9,56.8,48,29.93,10.0,NE,12.7,-,N/A,,Mostly Cloudy,40,2013-11-12 22:56:00
1:56 PM,75.9,55.9,50,29.92,10.0,NE,12.7,-,N/A,,Clear,40,2013-11-12 23:56:00
2:56 PM,77.0,56.8,50,29.90,10.0,NNE,15.0,-,N/A,,Clear,30,2013-11-13 00:56:00
3:56 PM,72.0,55.9,57,29.93,10.0,NE,11.5,-,N/A,,Overcast,40,2013-11-13 01:56:00
4:56 PM,70.0,55.9,61,29.94,10.0,NE,12.7,-,N/A,,Partly Cloudy,40,2013-11-13 02:56:00
5:56 PM,68.0,54.9,63,29.96,10.0,NE,13.8,17.3,N/A,,Clear,50,2013-11-13 03:56:00
6:56 PM,66.9,56.8,70,29.98,10.0,NE,12.7,-,N/A,,Clear,50,2013-11-13 04:56:00
7:56 PM,66.9,56.8,70,29.98,10.0,NE,13.8,-,N/A,,Clear,40,2013-11-13 05:56:00
8:56 PM,66.9,59.9,78,29.99,10.0,NE,12.7,-,N/A,,Clear,40,2013-11-13 06:56:00
9:56 PM,65.8,59.9,81,29.99,10.0,NE,13.8,-,N/A,,Clear,40,2013-11-13 07:56:00
10:56 PM,65.8,59.9,81,29.98,10.0,NE,13.8,-,N/A,,Clear,40,2013-11-13 08:56:00
11:56 PM,64.9,59.9,84,29.97,10.0,NE,15.0,-,N/A,,Clear,40,2013-11-13 09:56:00